EW8078 Weather Reports


time (UTC)temp
C
wind
direction
speed
KPH
gust
KPH
rain 1hr
cm
rain 24hr
cm
rain mn
cm
humidity
%
barometer
mb
20260505053036 7 236 0.0 6.4 0.00 0.61 0.61 81 1003.5
20260505051536 7 210 0.0 4.8 0.00 0.61 0.61 81 1003.4
20260505041508 7 244 1.6 8.0 0.03 0.61 0.61 80 1003.7
20260505040059 7 269 1.6 6.4 0.05 0.61 0.61 83 1003.7
20260505034555 7 224 1.6 8.0 0.20 0.61 0.61 82 1003.5
20260505033052 8 256 0.0 8.0 0.38 0.61 0.61 85 1003.7
20260505031551 8 281 0.0 4.8 0.51 0.58 0.58 85 1003.6
20260505030043 8 238 1.6 6.4 0.51 0.56 0.56 84 1003.4
20260505024537 8 268 1.6 8.0 0.36 0.41 0.41 85 1003.0
20260505023033 9 251 0.0 6.4 0.15 0.20 0.20 83 1002.7
20260505021533 10 284 1.6 4.8 0.05 0.08 0.08 81 1002.1
20260505020028 10 207 0.0 1.6 0.05 0.05 0.05 80 1001.9
20260505014518 11 313 0.0 3.2 0.05 0.05 0.05 75 1001.8
20260505013013 11 25 0.0 3.2 0.05 0.05 0.05 71 1001.3
20260505011510 12 2 1.6 9.7 0.03 0.03 0.03 62 1001.2
20260505010010 13 57 0.0 1.6 0.00 0.00 0.00 51 1000.8
20260505004559 13 325 0.0 0.0 0.00 0.00 0.00 51 1000.7
20260505003057 14 4 0.0 3.2 0.00 0.00 0.00 51 1000.6
20260505001551 15 88 0.0 4.8 0.00 0.00 0.00 50 1000.6
20260505000048 14 105 0.0 0.0 0.00 0.00 0.00 52 1000.4
20260504234542 13 318 0.0 0.0 0.00 0.00 0.00 55 1000.4
20260504233039 13 318 0.0 0.0 0.00 0.00 0.00 54 1000.4
20260504231532 13 294 0.0 0.0 0.00 0.00 0.00 57 1000.2
20260504230038 13 169 0.0 1.6 0.00 0.00 0.00 60 1000.0
20260504224524 12 298 0.0 9.7 0.00 0.00 0.00 59 1000.4
20260504223019 15 258 4.8 11.3 0.00 0.00 0.00 40 1000.5
20260504221535 15 318 1.6 8.0 0.00 0.00 0.00 40 1000.5
20260504220010 15 336 0.0 3.2 0.00 0.00 0.00 41 999.3
20260504214506 15 27 4.8 9.7 0.00 0.00 0.00 42 998.7
20260504213001 16 18 1.6 11.3 0.00 0.00 0.00 40 999.0
20260504211557 17 348 3.2 14.5 0.00 0.00 0.00 36 998.9
20260504210053 17 319 3.2 12.9 0.00 0.00 0.00 34 998.9
20260504204553 18 27 4.8 16.1 0.00 0.00 0.00 28 998.9
20260504203049 20 103 4.8 16.1 0.00 0.00 0.00 27 998.0
20260504201540 19 187 1.6 8.0 0.00 0.00 0.00 25 998.1
20260504200034 19 252 1.6 12.9 0.00 0.00 0.00 26 998.2
20260504194539 20 276 3.2 9.7 0.00 0.00 0.00 24 998.2
20260504193030 20 285 1.6 22.5 0.00 0.00 0.00 22 998.1
20260504191535 20 249 3.2 9.7 0.00 0.00 0.00 22 997.9
20260504190021 20 252 1.6 8.0 0.00 0.00 0.00 23 998.0
20260504184519 20 136 3.2 11.3 0.00 0.00 0.00 22 998.1
20260504183012 20 272 1.6 12.9 0.00 0.00 0.00 23 998.4
20260504181514 20 236 4.8 11.3 0.00 0.00 0.00 24 998.7
20260504180004 19 287 1.6 12.9 0.00 0.00 0.00 25 999.1
20260504174558 19 281 3.2 12.9 0.00 0.00 0.00 25 999.6
20260504173054 18 283 3.2 12.9 0.00 0.00 0.00 27 1000.0
20260504171554 18 264 3.2 9.7 0.00 0.00 0.00 27 1000.2
20260504081528 12 281 3.2 8.0 0.00 0.00 0.00 28 1001.7